Regional Weather Roundup
Issued by NWS Nashville, TN

Home | Current Version | Previous Version | Text Only | Print | Product List | Glossary On
Versions: 1 2 3 4 5 6 7 8 9 10 11 12 13 14 15 16 17 18 19 20 21 22 23 24 25 26 27 28 29 30 31 32 33 34 35 36 37 38 39 40 41 42 43 44 45 46 47 48 49 50
000
ASUS44 KOHX 161815
RWROHX
MIDDLE TENNESSEE HOURLY WEATHER ROUNDUP
NATIONAL WEATHER SERVICE NASHVILLE TN
100 PM CDT TUE SEP 16 2014

NOTE: "FAIR" INDICATES FEW OR NO CLOUDS BELOW 12,000 FEET WITH
NO SIGNIFICANT WEATHER AND/OR OBSTRUCTIONS TO VISIBILITY.

* THESE REPORTS ARE NOT UNDER NWS QUALITY CONTROL AND MAY NOT
  REPORT WEATHER SUCH AS PRECIPITATION AND FOG.


TNZ005>011-023>034-057-059-062>066-078-080-161900
...NORTHERN MIDDLE TENNESSEE...

CITY           SKY/WX    TMP DP  RH WIND       PRES   REMARKS
CLARKSVILLE    PTSUNNY   68  57  68 VRB5      30.14F
CROSSVILLE     PTSUNNY   72  63  73 NW12      30.13S
DICKSON          N/A     64  61  88 N8        30.13F
LEBANON        CLOUDY    64  63  97 N9        30.11S
LIVINGSTON     CLOUDY    65  62  90 CALM      30.12F
NASHVILLE      CLOUDY    69  62  78 N10       30.12F
WEST NASHVILLE CLOUDY    68  64  88 NW6       30.12F
PORTLAND       CLOUDY    64  61  88 VRB3      30.12F
SMYRNA         PTSUNNY   69  64  84 N9        30.12F
SPARTA         CLOUDY    70  64  83 CALM      30.10F
$$
TNZ056-058-060-061-075>077-079-093>097-161900
...SOUTHERN MIDDLE TENNESSEE...

CITY           SKY/WX    TMP DP  RH WIND       PRES   REMARKS
COLUMBIA       CLOUDY    73  70  88 N6        30.09F
FAYETTEVILLE   CLOUDY    79  64  61 N6        30.09F
LEWISBURG      CLOUDY    75  68  79 N7        30.10F
MCMINNVILLE    CLOUDY    72  70  94 NW7       30.11S
MURFREESBORO   CLOUDY    71  64  78 N7        30.10F
SHELBYVILLE    CLOUDY    73  66  78 N5        30.11F
TULLAHOMA      CLOUDY    73  66  78 N6        30.11F
WINCHESTER     CLOUDY    79  66  65 CALM      30.09F
$$


...KEY TO REMARKS...
VSB - VISIBILITY IN MILES
WCI - WIND CHILL INDEX
HX  - HEAT INDEX




USA.gov is the U.S. government's official web portal to all federal, state and local government web resources and services.